Time,TemperatureF,DewpointF,PressureIn,WindDirection,WindDirectionDegrees,WindSpeedMPH,WindSpeedGustMPH,Humidity,HourlyPrecipIn,Conditions,Clouds,dailyrainin,SoftwareType,DateUTC
2013-02-17 00:02:00,25.3,10.2,29.82,North,0,0.0,0.0,52,0.00,,SKC,0.00,VWS V13.00,2013-02-17 07:02:00,
2013-02-17 00:07:00,25.3,10.2,29.82,North,0,0.0,0.0,52,0.00,,SKC,0.00,VWS V13.00,2013-02-17 07:07:00,
2013-02-17 00:12:00,25.3,10.2,29.82,North,0,0.0,0.0,52,0.00,,SKC,0.00,VWS V13.00,2013-02-17 07:12:00,
2013-02-17 00:17:00,25.3,10.2,29.82,North,0,0.0,0.0,52,0.00,,SKC,0.00,VWS V13.00,2013-02-17 07:17:00,
2013-02-17 00:22:00,25.3,10.2,29.82,North,0,0.0,0.0,52,0.00,,SKC,0.00,VWS V13.00,2013-02-17 07:22:00,
2013-02-17 00:27:00,25.5,10.4,29.82,North,0,0.0,0.0,52,0.00,,SKC,0.00,VWS V13.00,2013-02-17 07:27:00,
2013-02-17 00:32:00,25.7,10.5,29.82,North,0,0.0,0.0,52,0.00,,SKC,0.00,VWS V13.00,2013-02-17 07:32:00,
2013-02-17 00:37:00,25.9,10.7,29.82,North,0,0.0,0.0,52,0.00,,SKC,0.00,VWS V13.00,2013-02-17 07:37:00,
2013-02-17 00:42:00,26.1,10.9,29.82,North,0,0.0,0.0,52,0.00,,SKC,0.00,VWS V13.00,2013-02-17 07:42:00,
2013-02-17 00:47:00,26.2,10.6,29.82,North,0,0.0,0.0,51,0.00,,SKC,0.00,VWS V13.00,2013-02-17 07:47:00,
2013-02-17 00:52:00,26.2,11.0,29.82,North,0,0.0,0.0,52,0.00,,SKC,0.00,VWS V13.00,2013-02-17 07:52:00,
2013-02-17 00:57:00,26.2,11.0,29.79,North,0,0.0,0.0,52,0.00,,SKC,0.00,VWS V13.00,2013-02-17 07:57:00,
2013-02-17 01:02:00,26.2,11.0,29.79,North,0,0.0,0.0,52,0.00,,SKC,0.00,VWS V13.00,2013-02-17 08:02:00,
2013-02-17 01:07:00,26.4,11.2,29.79,North,0,0.0,0.0,52,0.00,,SKC,0.00,VWS V13.00,2013-02-17 08:07:00,
2013-02-17 01:12:00,26.4,11.2,29.79,North,0,0.0,0.0,52,0.00,,SKC,0.00,VWS V13.00,2013-02-17 08:12:00,
2013-02-17 01:17:00,26.6,10.9,29.79,North,0,0.0,0.0,51,0.00,,SKC,0.00,VWS V13.00,2013-02-17 08:17:00,
2013-02-17 01:22:00,26.6,10.9,29.79,North,0,0.0,0.0,51,0.00,,SKC,0.00,VWS V13.00,2013-02-17 08:22:00,
2013-02-17 01:27:00,26.4,10.8,29.79,North,0,0.0,0.0,51,0.00,,SKC,0.00,VWS V13.00,2013-02-17 08:27:00,
2013-02-17 01:32:00,26.8,10.2,29.79,North,0,0.0,0.0,49,0.00,,SKC,0.00,VWS V13.00,2013-02-17 08:32:00,
2013-02-17 01:37:00,27.0,10.4,29.79,North,0,0.0,0.0,49,0.00,,SKC,0.00,VWS V13.00,2013-02-17 08:37:00,
2013-02-17 01:43:00,27.0,9.9,29.79,North,0,0.0,0.0,48,0.00,,SKC,0.00,VWS V13.00,2013-02-17 08:43:00,
2013-02-17 01:48:00,27.0,10.4,29.79,North,0,0.0,0.0,49,0.00,,SKC,0.00,VWS V13.00,2013-02-17 08:48:00,
2013-02-17 01:53:00,27.1,10.5,29.79,North,0,0.0,0.0,49,0.00,,SKC,0.00,VWS V13.00,2013-02-17 08:53:00,
2013-02-17 01:58:00,27.1,10.5,29.79,North,0,0.0,0.0,49,0.00,,SKC,0.00,VWS V13.00,2013-02-17 08:58:00,
2013-02-17 02:03:00,27.1,10.5,29.79,North,0,0.0,0.0,49,0.00,,SKC,0.00,VWS V13.00,2013-02-17 09:03:00,
2013-02-17 02:08:00,27.3,10.7,29.79,North,0,0.0,0.0,49,0.00,,SKC,0.00,VWS V13.00,2013-02-17 09:08:00,
2013-02-17 02:13:00,27.5,10.4,29.76,North,0,0.0,0.0,48,0.00,,SKC,0.00,VWS V13.00,2013-02-17 09:13:00,
2013-02-17 02:18:00,27.7,10.6,29.76,North,0,0.0,0.0,48,0.00,,SKC,0.00,VWS V13.00,2013-02-17 09:18:00,
2013-02-17 02:23:00,27.5,10.9,29.76,North,0,0.0,0.0,49,0.00,,SKC,0.00,VWS V13.00,2013-02-17 09:23:00,
2013-02-17 02:28:00,27.5,10.9,29.76,North,0,0.0,0.0,49,0.00,,SKC,0.00,VWS V13.00,2013-02-17 09:28:00,
2013-02-17 02:33:00,27.5,11.3,29.76,North,0,0.0,0.0,50,0.00,,SKC,0.00,VWS V13.00,2013-02-17 09:33:00,
2013-02-17 02:38:00,27.5,10.9,29.76,North,0,0.0,0.0,49,0.00,,SKC,0.00,VWS V13.00,2013-02-17 09:38:00,
2013-02-17 02:43:00,27.5,10.4,29.76,North,0,0.0,0.0,48,0.00,,SKC,0.00,VWS V13.00,2013-02-17 09:43:00,
2013-02-17 02:48:00,27.7,10.6,29.76,North,0,0.0,0.0,48,0.00,,SKC,0.00,VWS V13.00,2013-02-17 09:48:00,
2013-02-17 02:53:00,27.7,10.6,29.76,North,0,0.0,0.0,48,0.00,,SKC,0.00,VWS V13.00,2013-02-17 09:53:00,
2013-02-17 02:58:00,27.9,11.2,29.76,North,0,0.0,0.0,49,0.00,,SKC,0.00,VWS V13.00,2013-02-17 09:58:00,
2013-02-17 03:03:00,27.9,10.3,29.76,North,0,0.0,0.0,47,0.00,,SKC,0.00,VWS V13.00,2013-02-17 10:03:00,
2013-02-17 03:08:00,28.0,10.4,29.76,North,0,0.0,0.0,47,0.00,,SKC,0.00,VWS V13.00,2013-02-17 10:08:00,
2013-02-17 03:13:00,28.2,10.6,29.73,North,0,0.0,0.0,47,0.00,,SKC,0.00,VWS V13.00,2013-02-17 10:13:00,
2013-02-17 03:18:00,28.2,10.6,29.73,North,0,0.0,0.0,47,0.00,,SKC,0.00,VWS V13.00,2013-02-17 10:18:00,
2013-02-17 03:23:00,28.2,10.6,29.73,North,0,0.0,0.0,47,0.00,,SKC,0.00,VWS V13.00,2013-02-17 10:23:00,
2013-02-17 03:28:00,28.2,11.1,29.73,North,0,0.0,0.0,48,0.00,,SKC,0.00,VWS V13.00,2013-02-17 10:28:00,
2013-02-17 03:33:00,28.2,10.6,29.73,North,0,0.0,0.0,47,0.00,,SKC,0.00,VWS V13.00,2013-02-17 10:33:00,
2013-02-17 03:38:00,28.2,10.6,29.73,North,0,0.0,0.0,47,0.00,,SKC,0.00,VWS V13.00,2013-02-17 10:38:00,
2013-02-17 03:43:00,28.4,11.2,29.73,North,0,0.0,0.0,48,0.00,,SKC,0.00,VWS V13.00,2013-02-17 10:43:00,
2013-02-17 03:48:00,28.4,11.7,29.73,North,0,0.0,0.0,49,0.00,,SKC,0.00,VWS V13.00,2013-02-17 10:48:00,
2013-02-17 03:54:00,28.4,11.7,29.73,North,0,0.0,0.0,49,0.00,,SKC,0.00,VWS V13.00,2013-02-17 10:54:00,
2013-02-17 03:59:00,28.4,12.1,29.73,North,0,0.0,0.0,50,0.00,,SKC,0.00,VWS V13.00,2013-02-17 10:59:00,
2013-02-17 04:04:00,28.6,11.9,29.73,North,0,0.0,0.0,49,0.00,,SKC,0.00,VWS V13.00,2013-02-17 11:04:00,
2013-02-17 04:09:00,28.6,11.9,29.73,North,0,0.0,0.0,49,0.00,,SKC,0.00,VWS V13.00,2013-02-17 11:09:00,
2013-02-17 04:14:00,28.6,12.3,29.73,North,0,0.0,0.0,50,0.00,,SKC,0.00,VWS V13.00,2013-02-17 11:14:00,
2013-02-17 04:19:00,28.6,12.8,29.73,North,0,0.0,0.0,51,0.00,,SKC,0.00,VWS V13.00,2013-02-17 11:19:00,
2013-02-17 04:24:00,28.9,13.1,29.73,North,0,0.0,0.0,51,0.00,,SKC,0.00,VWS V13.00,2013-02-17 11:24:00,
2013-02-17 04:29:00,29.1,12.4,29.70,North,0,0.0,0.0,49,0.00,,SKC,0.00,VWS V13.00,2013-02-17 11:29:00,
2013-02-17 04:34:00,29.1,10.9,29.70,North,0,0.0,0.0,46,0.00,,SKC,0.00,VWS V13.00,2013-02-17 11:34:00,
2013-02-17 04:39:00,29.1,10.9,29.70,North,0,0.0,0.0,46,0.00,,SKC,0.00,VWS V13.00,2013-02-17 11:39:00,
2013-02-17 04:44:00,29.1,10.4,29.70,North,0,0.0,0.0,45,0.00,,SKC,0.00,VWS V13.00,2013-02-17 11:44:00,
2013-02-17 04:49:00,29.3,10.1,29.70,North,0,0.0,0.0,44,0.00,,SKC,0.00,VWS V13.00,2013-02-17 11:49:00,
2013-02-17 04:54:00,29.5,10.3,29.70,North,0,0.0,0.0,44,0.00,,SKC,0.00,VWS V13.00,2013-02-17 11:54:00,
2013-02-17 04:59:00,29.5,11.3,29.70,North,0,0.0,0.0,46,0.00,,SKC,0.00,VWS V13.00,2013-02-17 11:59:00,
2013-02-17 05:05:00,29.5,11.8,29.70,North,0,0.0,0.0,47,0.00,,SKC,0.00,VWS V13.00,2013-02-17 12:05:00,
2013-02-17 05:10:00,29.3,11.6,29.70,North,0,0.0,0.0,47,0.00,,SKC,0.00,VWS V13.00,2013-02-17 12:10:00,
2013-02-17 05:15:00,29.5,11.3,29.70,North,0,0.0,0.0,46,0.00,,SKC,0.00,VWS V13.00,2013-02-17 12:15:00,
2013-02-17 05:20:00,29.5,9.8,29.70,North,0,0.0,0.0,43,0.00,,SKC,0.00,VWS V13.00,2013-02-17 12:20:00,
2013-02-17 05:25:00,29.7,10.9,29.70,North,0,0.0,0.0,45,0.00,,SKC,0.00,VWS V13.00,2013-02-17 12:25:00,
2013-02-17 05:30:00,29.7,11.4,29.70,North,0,0.0,0.0,46,0.00,,SKC,0.00,VWS V13.00,2013-02-17 12:30:00,
2013-02-17 05:35:00,29.8,10.6,29.70,North,0,0.0,0.0,44,0.00,,SKC,0.00,VWS V13.00,2013-02-17 12:35:00,
2013-02-17 05:40:00,30.2,9.9,29.70,North,0,0.0,0.0,42,0.00,,SKC,0.00,VWS V13.00,2013-02-17 12:40:00,
2013-02-17 05:45:00,30.6,10.7,29.70,North,0,0.0,0.0,43,0.00,,SKC,0.00,VWS V13.00,2013-02-17 12:45:00,
2013-02-17 05:50:00,30.2,10.9,29.70,North,0,0.0,0.0,44,0.00,,SKC,0.00,VWS V13.00,2013-02-17 12:50:00,
2013-02-17 05:55:00,30.2,11.4,29.70,North,0,0.0,0.0,45,0.00,,SKC,0.00,VWS V13.00,2013-02-17 12:55:00,
2013-02-17 06:00:00,29.8,12.1,29.70,North,0,0.0,0.0,47,0.00,,SKC,0.00,VWS V13.00,2013-02-17 13:00:00,
2013-02-17 06:05:00,29.8,12.1,29.70,North,0,0.0,0.0,47,0.00,,SKC,0.00,VWS V13.00,2013-02-17 13:05:00,
2013-02-17 06:10:00,29.8,12.1,29.70,North,0,0.0,0.0,47,0.00,,SKC,0.00,VWS V13.00,2013-02-17 13:10:00,
2013-02-17 06:15:00,30.0,12.2,29.67,North,0,0.0,0.0,47,0.00,,SKC,0.00,VWS V13.00,2013-02-17 13:15:00,
2013-02-17 06:20:00,30.4,12.1,29.67,North,0,0.0,0.0,46,0.00,,SKC,0.00,VWS V13.00,2013-02-17 13:20:00,
2013-02-17 06:25:00,30.9,12.6,29.67,North,0,0.0,0.0,46,0.00,,SKC,0.00,VWS V13.00,2013-02-17 13:25:00,
2013-02-17 06:30:00,30.9,12.6,29.67,North,0,0.0,0.0,46,0.00,,SKC,0.00,VWS V13.00,2013-02-17 13:30:00,
2013-02-17 06:35:00,30.9,12.6,29.67,North,0,0.0,0.0,46,0.00,,SKC,0.00,VWS V13.00,2013-02-17 13:35:00,
2013-02-17 06:40:00,31.1,13.2,29.67,North,0,0.0,0.0,47,0.00,,SKC,0.00,VWS V13.00,2013-02-17 13:40:00,
2013-02-17 06:45:00,30.9,13.6,29.67,North,0,0.0,0.0,48,0.00,,SKC,0.00,VWS V13.00,2013-02-17 13:45:00,
2013-02-17 06:50:00,30.6,12.7,29.67,North,0,0.0,0.0,47,0.00,,SKC,0.00,VWS V13.00,2013-02-17 13:50:00,
2013-02-17 06:55:00,31.1,11.8,29.67,North,0,0.0,0.0,44,0.00,,SKC,0.00,VWS V13.00,2013-02-17 13:55:00,
2013-02-17 07:00:00,32.0,12.1,29.67,North,0,0.0,0.0,43,0.00,,SKC,0.00,VWS V13.00,2013-02-17 14:00:00,
2013-02-17 07:06:00,32.2,12.2,29.67,North,0,0.0,0.0,43,0.00,,SKC,0.00,VWS V13.00,2013-02-17 14:06:00,
2013-02-17 07:11:00,32.0,12.1,29.67,North,0,0.0,0.0,43,0.00,,SKC,0.00,VWS V13.00,2013-02-17 14:11:00,
2013-02-17 07:15:00,31.5,11.6,29.67,North,0,0.0,0.0,43,0.00,,SKC,0.00,VWS V13.00,2013-02-17 14:15:00,
2013-02-17 07:20:00,31.1,11.2,29.67,North,0,0.0,0.0,43,0.00,,SKC,0.00,VWS V13.00,2013-02-17 14:20:00,
2013-02-17 07:25:00,31.1,11.2,29.67,North,0,0.0,0.0,43,0.00,,SKC,0.00,VWS V13.00,2013-02-17 14:25:00,
2013-02-17 07:31:00,31.1,11.8,29.67,North,0,0.0,0.0,44,0.00,,SKC,0.00,VWS V13.00,2013-02-17 14:31:00,
2013-02-17 07:36:00,30.9,11.6,29.67,North,0,0.0,0.0,44,0.00,,SKC,0.00,VWS V13.00,2013-02-17 14:36:00,
2013-02-17 07:41:00,30.2,12.4,29.67,North,0,0.0,0.0,47,0.00,,SKC,0.00,VWS V13.00,2013-02-17 14:41:00,
2013-02-17 07:46:00,29.3,12.5,29.67,North,0,0.0,0.0,49,0.00,,SKC,0.00,VWS V13.00,2013-02-17 14:46:00,
2013-02-17 07:51:00,28.8,12.9,29.67,North,0,0.0,0.0,51,0.00,,SKC,0.00,VWS V13.00,2013-02-17 14:51:00,
2013-02-17 07:56:00,28.6,13.2,29.67,North,0,0.0,0.0,52,0.00,,SKC,0.00,VWS V13.00,2013-02-17 14:56:00,
2013-02-17 08:01:00,28.4,13.5,29.67,North,0,0.0,0.0,53,0.00,,SKC,0.00,VWS V13.00,2013-02-17 15:01:00,
2013-02-17 08:06:00,28.6,13.6,29.67,North,0,0.0,0.0,53,0.00,,SKC,0.00,VWS V13.00,2013-02-17 15:06:00,
2013-02-17 08:11:00,28.8,13.8,29.67,North,0,0.0,0.0,53,0.00,,SKC,0.00,VWS V13.00,2013-02-17 15:11:00,
2013-02-17 08:16:00,28.9,14.0,29.67,North,0,0.0,0.0,53,0.00,,SKC,0.00,VWS V13.00,2013-02-17 15:16:00,
2013-02-17 08:21:00,28.8,13.8,29.67,North,0,0.0,0.0,53,0.00,,SKC,0.00,VWS V13.00,2013-02-17 15:21:00,
2013-02-17 08:26:00,28.9,14.0,29.70,North,0,0.0,0.0,53,0.00,,SKC,0.00,VWS V13.00,2013-02-17 15:26:00,
2013-02-17 08:31:00,29.1,14.1,29.70,North,0,0.0,0.0,53,0.00,,SKC,0.00,VWS V13.00,2013-02-17 15:31:00,
2013-02-17 08:36:00,29.1,13.7,29.70,North,0,0.0,0.0,52,0.00,,SKC,0.00,VWS V13.00,2013-02-17 15:36:00,
2013-02-17 08:41:00,29.5,14.0,29.70,North,0,0.0,0.0,52,0.00,,SKC,0.00,VWS V13.00,2013-02-17 15:41:00,
2013-02-17 08:46:00,29.5,13.6,29.70,North,0,0.0,0.0,51,0.00,,SKC,0.00,VWS V13.00,2013-02-17 15:46:00,
2013-02-17 08:51:00,29.5,13.6,29.70,North,0,0.0,0.0,51,0.00,,SKC,0.00,VWS V13.00,2013-02-17 15:51:00,
2013-02-17 08:56:00,29.8,13.9,29.70,North,0,0.0,0.0,51,0.00,,SKC,0.00,VWS V13.00,2013-02-17 15:56:00,
2013-02-17 09:01:00,30.2,14.3,29.70,North,0,0.0,0.0,51,0.00,,SKC,0.00,VWS V13.00,2013-02-17 16:01:00,
2013-02-17 09:06:00,30.6,14.1,29.70,North,0,0.0,0.0,50,0.00,,SKC,0.00,VWS V13.00,2013-02-17 16:06:00,
2013-02-17 09:11:00,31.1,14.6,29.70,North,0,0.0,0.0,50,0.00,,SKC,0.00,VWS V13.00,2013-02-17 16:11:00,
2013-02-17 09:16:00,31.5,14.5,29.70,North,0,0.0,0.0,49,0.00,,SKC,0.00,VWS V13.00,2013-02-17 16:16:00,
2013-02-17 09:21:00,31.8,14.9,29.70,North,0,0.0,0.0,49,0.00,,SKC,0.00,VWS V13.00,2013-02-17 16:21:00,
2013-02-17 09:26:00,32.4,14.9,29.70,North,0,0.0,0.0,48,0.00,,SKC,0.00,VWS V13.00,2013-02-17 16:26:00,
2013-02-17 09:31:00,32.9,14.9,29.70,North,0,0.0,0.0,47,0.00,,SKC,0.00,VWS V13.00,2013-02-17 16:31:00,
2013-02-17 09:36:00,33.4,14.4,29.70,North,0,0.0,0.0,45,0.00,,SKC,0.00,VWS V13.00,2013-02-17 16:36:00,
2013-02-17 09:42:00,33.8,14.7,29.67,North,0,0.0,0.0,45,0.00,,SKC,0.00,VWS V13.00,2013-02-17 16:42:00,
2013-02-17 09:47:00,34.0,14.9,29.67,North,0,0.0,0.0,45,0.00,,SKC,0.00,VWS V13.00,2013-02-17 16:47:00,
2013-02-17 09:52:00,34.0,14.4,29.67,North,0,0.0,0.0,44,0.00,,SKC,0.00,VWS V13.00,2013-02-17 16:52:00,
2013-02-17 09:57:00,34.2,14.5,29.67,North,0,0.0,0.0,44,0.00,,SKC,0.00,VWS V13.00,2013-02-17 16:57:00,
2013-02-17 10:02:00,34.0,14.9,29.67,North,0,0.0,0.0,45,0.00,,SKC,0.00,VWS V13.00,2013-02-17 17:02:00,
2013-02-17 10:07:00,33.8,14.7,29.67,North,0,0.0,0.0,45,0.00,,SKC,0.00,VWS V13.00,2013-02-17 17:07:00,
2013-02-17 10:12:00,33.8,15.2,29.67,North,0,0.0,0.0,46,0.00,,SKC,0.00,VWS V13.00,2013-02-17 17:12:00,
2013-02-17 10:17:00,33.6,15.6,29.67,North,0,0.0,0.0,47,0.00,,SKC,0.00,VWS V13.00,2013-02-17 17:17:00,
2013-02-17 10:22:00,33.6,15.6,29.67,North,0,0.0,0.0,47,0.00,,SKC,0.00,VWS V13.00,2013-02-17 17:22:00,
2013-02-17 10:27:00,33.3,15.7,29.67,North,0,0.0,0.0,48,0.00,,SKC,0.00,VWS V13.00,2013-02-17 17:27:00,
2013-02-17 10:32:00,33.6,16.0,29.67,North,0,0.0,0.0,48,0.00,,SKC,0.00,VWS V13.00,2013-02-17 17:32:00,
2013-02-17 10:37:00,34.0,16.4,29.67,North,0,0.0,0.0,48,0.00,,SKC,0.00,VWS V13.00,2013-02-17 17:37:00,
2013-02-17 10:42:00,34.3,16.2,29.67,North,0,0.0,0.0,47,0.00,,SKC,0.00,VWS V13.00,2013-02-17 17:42:00,
2013-02-17 10:47:00,34.7,16.0,29.67,North,0,0.0,0.0,46,0.00,,SKC,0.00,VWS V13.00,2013-02-17 17:47:00,
2013-02-17 10:52:00,34.7,16.0,29.67,North,0,0.0,0.0,46,0.00,,SKC,0.00,VWS V13.00,2013-02-17 17:52:00,
2013-02-17 10:57:00,34.9,16.2,29.70,North,0,0.0,0.0,46,0.00,,SKC,0.00,VWS V13.00,2013-02-17 17:57:00,
2013-02-17 11:02:00,35.2,16.5,29.70,North,0,0.0,0.0,46,0.00,,SKC,0.00,VWS V13.00,2013-02-17 18:02:00,
2013-02-17 11:07:00,35.1,16.9,29.70,North,0,0.0,0.0,47,0.00,,SKC,0.00,VWS V13.00,2013-02-17 18:07:00,
2013-02-17 11:12:00,35.1,17.4,29.70,North,0,0.0,0.0,48,0.00,,SKC,0.00,VWS V13.00,2013-02-17 18:12:00,
2013-02-17 11:18:00,35.2,17.5,29.70,North,0,0.0,0.0,48,0.00,,SKC,0.00,VWS V13.00,2013-02-17 18:18:00,
2013-02-17 11:23:00,35.1,17.8,29.70,North,0,0.0,0.0,49,0.00,,SKC,0.00,VWS V13.00,2013-02-17 18:23:00,
2013-02-17 11:28:00,35.4,18.2,29.70,North,0,0.0,0.0,49,0.00,,SKC,0.00,VWS V13.00,2013-02-17 18:28:00,
2013-02-17 11:33:00,35.4,18.2,29.70,North,0,0.0,0.0,49,0.00,,SKC,0.00,VWS V13.00,2013-02-17 18:33:00,
2013-02-17 11:38:00,35.4,18.6,29.70,North,0,0.0,0.0,50,0.00,,SKC,0.00,VWS V13.00,2013-02-17 18:38:00,
2013-02-17 11:43:00,35.4,18.6,29.70,North,0,0.0,0.0,50,0.00,,SKC,0.00,VWS V13.00,2013-02-17 18:43:00,
2013-02-17 11:48:00,35.2,18.9,29.70,North,0,0.0,0.0,51,0.00,,SKC,0.00,VWS V13.00,2013-02-17 18:48:00,
2013-02-17 11:53:00,35.4,18.2,29.70,North,0,0.0,0.0,49,0.00,,SKC,0.00,VWS V13.00,2013-02-17 18:53:00,
2013-02-17 11:58:00,35.4,18.2,29.70,North,0,0.0,0.0,49,0.00,,SKC,0.00,VWS V13.00,2013-02-17 18:58:00,
2013-02-17 12:03:00,35.6,18.3,29.70,North,0,0.0,0.0,49,0.00,,SKC,0.00,VWS V13.00,2013-02-17 19:03:00,
2013-02-17 12:08:00,35.8,18.5,29.70,North,0,0.0,0.0,49,0.00,,SKC,0.00,VWS V13.00,2013-02-17 19:08:00,
2013-02-17 12:13:00,35.6,18.8,29.70,North,0,0.0,0.0,50,0.00,,SKC,0.00,VWS V13.00,2013-02-17 19:13:00,
2013-02-17 12:18:00,35.1,18.8,29.70,North,0,0.0,0.0,51,0.00,,SKC,0.00,VWS V13.00,2013-02-17 19:18:00,
2013-02-17 12:23:00,35.1,19.7,29.70,North,0,0.0,0.0,53,0.00,,SKC,0.00,VWS V13.00,2013-02-17 19:23:00,
2013-02-17 12:28:00,34.9,19.5,29.70,North,0,0.0,0.0,53,0.00,,SKC,0.00,VWS V13.00,2013-02-17 19:28:00,
2013-02-17 12:33:00,34.9,19.5,29.70,North,0,0.0,0.0,53,0.00,,SKC,0.00,VWS V13.00,2013-02-17 19:33:00,
2013-02-17 12:38:00,34.9,18.6,29.70,North,0,0.0,0.0,51,0.00,,SKC,0.00,VWS V13.00,2013-02-17 19:38:00,
2013-02-17 12:43:00,34.9,17.2,29.67,North,0,0.0,0.0,48,0.00,,SKC,0.00,VWS V13.00,2013-02-17 19:43:00,
2013-02-17 12:48:00,34.5,15.9,29.67,North,0,0.0,0.0,46,0.00,,SKC,0.00,VWS V13.00,2013-02-17 19:48:00,
2013-02-17 12:53:00,34.5,15.9,29.67,North,0,0.0,0.0,46,0.00,,SKC,0.00,VWS V13.00,2013-02-17 19:53:00,
2013-02-17 12:59:00,34.2,15.6,29.67,North,0,0.0,0.0,46,0.00,,SKC,0.00,VWS V13.00,2013-02-17 19:59:00,
2013-02-17 13:04:00,34.2,16.0,29.67,North,0,0.0,0.0,47,0.00,,SKC,0.00,VWS V13.00,2013-02-17 20:04:00,
2013-02-17 13:09:00,34.5,16.4,29.67,North,0,0.0,0.0,47,0.00,,SKC,0.00,VWS V13.00,2013-02-17 20:09:00,
2013-02-17 13:14:00,34.5,16.4,29.67,North,0,0.0,0.0,47,0.00,,SKC,0.00,VWS V13.00,2013-02-17 20:14:00,
2013-02-17 13:19:00,34.5,15.9,29.67,North,0,0.0,0.0,46,0.00,,SKC,0.00,VWS V13.00,2013-02-17 20:19:00,
2013-02-17 13:24:00,34.3,15.7,29.67,North,0,0.0,0.0,46,0.00,,SKC,0.00,VWS V13.00,2013-02-17 20:24:00,
2013-02-17 13:29:00,34.0,14.9,29.67,North,0,0.0,0.0,45,0.00,,SKC,0.00,VWS V13.00,2013-02-17 20:29:00,
2013-02-17 13:34:00,33.8,14.2,29.67,North,0,0.0,0.0,44,0.00,,SKC,0.00,VWS V13.00,2013-02-17 20:34:00,
2013-02-17 13:39:00,32.9,13.4,29.67,North,0,0.0,0.0,44,0.00,,SKC,0.00,VWS V13.00,2013-02-17 20:39:00,
2013-02-17 13:44:00,32.5,13.1,29.67,North,0,0.0,0.0,44,0.00,,SKC,0.00,VWS V13.00,2013-02-17 20:44:00,
2013-02-17 13:49:00,32.2,13.2,29.67,North,0,0.0,0.0,45,0.00,,SKC,0.00,VWS V13.00,2013-02-17 20:49:00,
2013-02-17 13:54:00,31.8,13.4,29.67,North,0,0.0,0.0,46,0.00,,SKC,0.00,VWS V13.00,2013-02-17 20:54:00,
2013-02-17 13:59:00,31.3,12.9,29.67,North,0,0.0,0.0,46,0.00,,SKC,0.00,VWS V13.00,2013-02-17 20:59:00,
2013-02-17 14:04:00,31.5,13.6,29.67,North,0,0.0,0.0,47,0.00,,SKC,0.00,VWS V13.00,2013-02-17 21:04:00,
2013-02-17 14:09:00,31.3,13.9,29.67,North,0,0.0,0.0,48,0.00,,SKC,0.00,VWS V13.00,2013-02-17 21:09:00,
2013-02-17 14:14:00,31.5,14.1,29.67,North,0,0.0,0.0,48,0.00,,SKC,0.00,VWS V13.00,2013-02-17 21:14:00,
2013-02-17 14:20:00,31.1,13.2,29.67,North,0,0.0,0.0,47,0.00,,SKC,0.00,VWS V13.00,2013-02-17 21:20:00,
2013-02-17 14:25:00,30.9,13.1,29.67,North,0,0.0,0.0,47,0.00,,SKC,0.00,VWS V13.00,2013-02-17 21:25:00,
2013-02-17 14:30:00,30.7,12.4,29.67,North,0,0.0,0.0,46,0.00,,SKC,0.00,VWS V13.00,2013-02-17 21:30:00,
2013-02-17 14:35:00,30.6,11.8,29.67,North,0,0.0,0.0,45,0.00,,SKC,0.00,VWS V13.00,2013-02-17 21:35:00,
2013-02-17 14:40:00,30.6,12.3,29.67,North,0,0.0,0.0,46,0.00,,SKC,0.00,VWS V13.00,2013-02-17 21:40:00,
2013-02-17 14:45:00,30.2,12.9,29.67,North,0,0.0,0.0,48,0.00,,SKC,0.00,VWS V13.00,2013-02-17 21:45:00,
2013-02-17 14:50:00,29.8,13.0,29.67,North,0,0.0,0.0,49,0.00,,SKC,0.00,VWS V13.00,2013-02-17 21:50:00,
2013-02-17 14:55:00,29.8,12.1,29.67,North,0,0.0,0.0,47,0.00,,SKC,0.00,VWS V13.00,2013-02-17 21:55:00,
2013-02-17 15:00:00,30.0,12.7,29.67,North,0,0.0,0.0,48,0.00,,SKC,0.00,VWS V13.00,2013-02-17 22:00:00,
2013-02-17 15:05:00,30.0,13.2,29.67,North,0,0.0,0.0,49,0.00,,SKC,0.00,VWS V13.00,2013-02-17 22:05:00,
2013-02-17 15:10:00,30.0,13.6,29.67,North,0,0.0,0.0,50,0.00,,SKC,0.00,VWS V13.00,2013-02-17 22:10:00,
2013-02-17 15:15:00,29.8,13.9,29.67,North,0,0.0,0.0,51,0.00,,SKC,0.00,VWS V13.00,2013-02-17 22:15:00,
2013-02-17 15:20:00,30.0,14.5,29.67,North,0,0.0,0.0,52,0.00,,SKC,0.00,VWS V13.00,2013-02-17 22:20:00,
2013-02-17 15:25:00,29.1,13.7,29.67,North,0,0.0,0.0,52,0.00,,SKC,0.00,VWS V13.00,2013-02-17 22:25:00,
2013-02-17 15:30:00,28.8,14.6,29.70,North,0,0.0,0.0,55,0.00,,SKC,0.00,VWS V13.00,2013-02-17 22:30:00,
2013-02-17 15:35:00,28.8,15.1,29.70,North,0,0.0,0.0,56,0.00,,SKC,0.00,VWS V13.00,2013-02-17 22:35:00,
2013-02-17 15:40:00,28.8,15.5,29.70,North,0,0.0,0.0,57,0.00,,SKC,0.00,VWS V13.00,2013-02-17 22:40:00,
2013-02-17 15:45:00,28.6,15.7,29.70,North,0,0.0,0.0,58,0.00,,SKC,0.00,VWS V13.00,2013-02-17 22:45:00,
2013-02-17 15:50:00,28.2,16.1,29.70,North,0,0.0,0.0,60,0.00,,SKC,0.00,VWS V13.00,2013-02-17 22:50:00,
2013-02-17 15:55:00,28.0,16.0,29.70,North,0,0.0,0.0,60,0.00,,SKC,0.00,VWS V13.00,2013-02-17 22:55:00,
2013-02-17 16:00:00,27.7,15.2,29.70,North,0,0.0,0.0,59,0.00,,SKC,0.00,VWS V13.00,2013-02-17 23:00:00,
2013-02-17 16:05:00,27.9,15.0,29.70,North,0,0.0,0.0,58,0.00,,SKC,0.00,VWS V13.00,2013-02-17 23:05:00,
2013-02-17 16:10:00,27.7,14.0,29.70,North,0,0.0,0.0,56,0.00,,SKC,0.00,VWS V13.00,2013-02-17 23:10:00,
2013-02-17 16:15:00,27.1,12.7,29.70,North,0,0.0,0.0,54,0.00,,SKC,0.00,VWS V13.00,2013-02-17 23:15:00,
2013-02-17 16:20:00,27.0,11.7,29.70,North,0,0.0,0.0,52,0.00,,SKC,0.00,VWS V13.00,2013-02-17 23:20:00,
2013-02-17 16:25:00,26.8,11.1,29.70,North,0,0.0,0.0,51,0.00,,SKC,0.00,VWS V13.00,2013-02-17 23:25:00,
2013-02-17 16:31:00,26.6,10.5,29.70,North,0,0.0,0.0,50,0.00,,SKC,0.00,VWS V13.00,2013-02-17 23:31:00,
2013-02-17 16:36:00,26.8,10.6,29.70,North,0,0.0,0.0,50,0.00,,SKC,0.00,VWS V13.00,2013-02-17 23:36:00,
2013-02-17 16:41:00,26.8,11.1,29.70,North,0,0.0,0.0,51,0.00,,SKC,0.00,VWS V13.00,2013-02-17 23:41:00,
2013-02-17 16:46:00,26.8,11.1,29.70,North,0,0.0,0.0,51,0.00,,SKC,0.00,VWS V13.00,2013-02-17 23:46:00,
2013-02-17 16:51:00,26.6,11.4,29.70,North,0,0.0,0.0,52,0.00,,SKC,0.00,VWS V13.00,2013-02-17 23:51:00,
2013-02-17 16:56:00,26.2,11.4,29.73,North,0,0.0,0.0,53,0.00,,SKC,0.00,VWS V13.00,2013-02-17 23:56:00,
2013-02-17 17:01:00,26.1,11.3,29.73,North,0,0.0,0.0,53,0.00,,SKC,0.00,VWS V13.00,2013-02-18 00:01:00,
2013-02-17 17:06:00,26.1,12.1,29.73,North,0,0.0,0.0,55,0.00,,SKC,0.00,VWS V13.00,2013-02-18 00:06:00,
2013-02-17 17:11:00,26.1,12.5,29.73,North,0,0.0,0.0,56,0.00,,SKC,0.00,VWS V13.00,2013-02-18 00:11:00,
2013-02-17 17:16:00,26.1,12.5,29.73,North,0,0.0,0.0,56,0.00,,SKC,0.00,VWS V13.00,2013-02-18 00:16:00,
2013-02-17 17:21:00,26.2,13.1,29.73,North,0,0.0,0.0,57,0.00,,SKC,0.00,VWS V13.00,2013-02-18 00:21:00,
2013-02-17 17:26:00,26.2,13.5,29.73,North,0,0.0,0.0,58,0.00,,SKC,0.00,VWS V13.00,2013-02-18 00:26:00,
2013-02-17 17:31:00,26.1,13.7,29.73,North,0,0.0,0.0,59,0.00,,SKC,0.00,VWS V13.00,2013-02-18 00:31:00,
2013-02-17 17:36:00,26.2,14.3,29.73,North,0,0.0,0.0,60,0.00,,SKC,0.00,VWS V13.00,2013-02-18 00:36:00,
2013-02-17 17:41:00,26.2,14.6,29.73,North,0,0.0,0.0,61,0.00,,SKC,0.00,VWS V13.00,2013-02-18 00:41:00,
2013-02-17 17:46:00,26.2,14.6,29.73,North,0,0.0,0.0,61,0.00,,SKC,0.00,VWS V13.00,2013-02-18 00:46:00,
2013-02-17 17:51:00,26.2,14.3,29.73,North,0,0.0,0.0,60,0.00,,SKC,0.00,VWS V13.00,2013-02-18 00:51:00,
2013-02-17 17:56:00,26.1,14.1,29.73,North,0,0.0,0.0,60,0.00,,SKC,0.00,VWS V13.00,2013-02-18 00:56:00,
2013-02-17 18:01:00,25.7,13.4,29.73,North,0,0.0,0.0,59,0.00,,SKC,0.00,VWS V13.00,2013-02-18 01:01:00,
2013-02-17 18:06:00,25.5,13.2,29.73,North,0,0.0,0.0,59,0.00,,SKC,0.00,VWS V13.00,2013-02-18 01:06:00,
2013-02-17 18:11:00,25.3,13.0,29.76,North,0,0.0,0.0,59,0.00,,SKC,0.00,VWS V13.00,2013-02-18 01:11:00,
2013-02-17 18:16:00,25.0,12.7,29.76,North,0,0.0,0.0,59,0.00,,SKC,0.00,VWS V13.00,2013-02-18 01:16:00,
2013-02-17 18:21:00,25.0,12.7,29.76,North,0,0.0,0.0,59,0.00,,SKC,0.00,VWS V13.00,2013-02-18 01:21:00,
2013-02-17 18:27:00,24.8,12.9,29.76,North,0,0.0,0.0,60,0.00,,SKC,0.00,VWS V13.00,2013-02-18 01:27:00,
2013-02-17 18:32:00,24.8,12.9,29.76,North,0,0.0,0.0,60,0.00,,SKC,0.00,VWS V13.00,2013-02-18 01:32:00,
2013-02-17 18:37:00,24.8,12.9,29.76,North,0,0.0,0.0,60,0.00,,SKC,0.00,VWS V13.00,2013-02-18 01:37:00,
2013-02-17 18:42:00,24.6,12.7,29.76,North,0,0.0,0.0,60,0.00,,SKC,0.00,VWS V13.00,2013-02-18 01:42:00,
2013-02-17 18:47:00,24.1,12.2,29.76,North,0,0.0,0.0,60,0.00,,SKC,0.00,VWS V13.00,2013-02-18 01:47:00,
2013-02-17 18:52:00,23.5,11.3,29.76,North,0,0.0,0.0,59,0.00,,SKC,0.00,VWS V13.00,2013-02-18 01:52:00,
2013-02-17 18:57:00,23.4,11.5,29.76,North,0,0.0,0.0,60,0.00,,SKC,0.00,VWS V13.00,2013-02-18 01:57:00,
2013-02-17 19:02:00,23.0,11.2,29.76,North,0,0.0,0.0,60,0.00,,SKC,0.00,VWS V13.00,2013-02-18 02:02:00,
2013-02-17 19:07:00,23.0,11.6,29.76,North,0,0.0,0.0,61,0.00,,SKC,0.00,VWS V13.00,2013-02-18 02:07:00,
2013-02-17 19:12:00,23.0,11.6,29.76,North,0,0.0,0.0,61,0.00,,SKC,0.00,VWS V13.00,2013-02-18 02:12:00,
2013-02-17 19:17:00,23.0,11.6,29.76,North,0,0.0,0.0,61,0.00,,SKC,0.00,VWS V13.00,2013-02-18 02:17:00,
2013-02-17 19:22:00,22.8,11.4,29.76,North,0,0.0,0.0,61,0.00,,SKC,0.00,VWS V13.00,2013-02-18 02:22:00,
2013-02-17 19:27:00,22.8,11.8,29.76,North,0,0.0,0.0,62,0.00,,SKC,0.00,VWS V13.00,2013-02-18 02:27:00,
2013-02-17 19:32:00,22.8,11.8,29.76,North,0,0.0,0.0,62,0.00,,SKC,0.00,VWS V13.00,2013-02-18 02:32:00,
2013-02-17 19:37:00,22.8,11.4,29.76,North,0,0.0,0.0,61,0.00,,SKC,0.00,VWS V13.00,2013-02-18 02:37:00,
2013-02-17 19:42:00,22.6,11.2,29.76,North,0,0.0,0.0,61,0.00,,SKC,0.00,VWS V13.00,2013-02-18 02:42:00,
2013-02-17 19:48:00,22.6,11.2,29.76,North,0,0.0,0.0,61,0.00,,SKC,0.00,VWS V13.00,2013-02-18 02:48:00,
2013-02-17 19:53:00,22.5,11.1,29.76,North,0,0.0,0.0,61,0.00,,SKC,0.00,VWS V13.00,2013-02-18 02:53:00,
2013-02-17 19:58:00,22.1,10.4,29.76,North,0,0.0,0.0,60,0.00,,SKC,0.00,VWS V13.00,2013-02-18 02:58:00,
2013-02-17 20:03:00,21.9,10.2,29.76,North,0,0.0,0.0,60,0.00,,SKC,0.00,VWS V13.00,2013-02-18 03:03:00,
2013-02-17 20:08:00,21.7,10.0,29.76,North,0,0.0,0.0,60,0.00,,SKC,0.00,VWS V13.00,2013-02-18 03:08:00,
2013-02-17 20:13:00,21.4,9.7,29.79,North,0,0.0,0.0,60,0.00,,SKC,0.00,VWS V13.00,2013-02-18 03:13:00,
2013-02-17 20:18:00,21.2,9.9,29.79,North,0,0.0,0.0,61,0.00,,SKC,0.00,VWS V13.00,2013-02-18 03:18:00,
2013-02-17 20:23:00,20.8,9.5,29.79,North,0,0.0,0.0,61,0.00,,SKC,0.00,VWS V13.00,2013-02-18 03:23:00,
2013-02-17 20:28:00,20.7,9.4,29.79,North,0,0.0,0.0,61,0.00,,SKC,0.00,VWS V13.00,2013-02-18 03:28:00,
2013-02-17 20:33:00,20.5,9.2,29.79,North,0,0.0,0.0,61,0.00,,SKC,0.00,VWS V13.00,2013-02-18 03:33:00,
2013-02-17 20:38:00,20.3,9.4,29.79,North,0,0.0,0.0,62,0.00,,SKC,0.00,VWS V13.00,2013-02-18 03:38:00,
2013-02-17 20:43:00,20.5,9.6,29.79,North,0,0.0,0.0,62,0.00,,SKC,0.00,VWS V13.00,2013-02-18 03:43:00,
2013-02-17 20:48:00,20.5,9.6,29.79,North,0,0.0,0.0,62,0.00,,SKC,0.00,VWS V13.00,2013-02-18 03:48:00,
2013-02-17 20:53:00,20.5,9.6,29.79,North,0,0.0,0.0,62,0.00,,SKC,0.00,VWS V13.00,2013-02-18 03:53:00,
2013-02-17 20:59:00,20.7,9.7,29.79,North,0,0.0,0.0,62,0.00,,SKC,0.00,VWS V13.00,2013-02-18 03:59:00,
2013-02-17 21:04:00,20.7,9.4,29.79,North,0,0.0,0.0,61,0.00,,SKC,0.00,VWS V13.00,2013-02-18 04:04:00,
2013-02-17 21:09:00,20.8,9.5,29.79,North,0,0.0,0.0,61,0.00,,SKC,0.00,VWS V13.00,2013-02-18 04:09:00,
2013-02-17 21:14:00,20.8,9.5,29.79,North,0,0.0,0.0,61,0.00,,SKC,0.00,VWS V13.00,2013-02-18 04:14:00,
2013-02-17 21:19:00,20.5,8.4,29.79,North,0,0.0,0.0,59,0.00,,SKC,0.00,VWS V13.00,2013-02-18 04:19:00,
2013-02-17 21:24:00,20.1,8.1,29.79,North,0,0.0,0.0,59,0.00,,SKC,0.00,VWS V13.00,2013-02-18 04:24:00,
2013-02-17 21:29:00,19.6,7.6,29.79,North,0,0.0,0.0,59,0.00,,SKC,0.00,VWS V13.00,2013-02-18 04:29:00,
2013-02-17 21:34:00,19.4,7.8,29.79,North,0,0.0,0.0,60,0.00,,SKC,0.00,VWS V13.00,2013-02-18 04:34:00,
2013-02-17 21:39:00,19.2,7.6,29.79,North,0,0.0,0.0,60,0.00,,SKC,0.00,VWS V13.00,2013-02-18 04:39:00,
2013-02-17 21:44:00,18.9,7.3,29.79,North,0,0.0,0.0,60,0.00,,SKC,0.00,VWS V13.00,2013-02-18 04:44:00,
2013-02-17 21:49:00,18.9,7.3,29.79,North,0,0.0,0.0,60,0.00,,SKC,0.00,VWS V13.00,2013-02-18 04:49:00,
2013-02-17 21:54:00,18.5,6.9,29.79,North,0,0.0,0.0,60,0.00,,SKC,0.00,VWS V13.00,2013-02-18 04:54:00,
2013-02-17 21:59:00,18.5,6.9,29.79,North,0,0.0,0.0,60,0.00,,SKC,0.00,VWS V13.00,2013-02-18 04:59:00,
2013-02-17 22:00:00,18.5,6.9,29.79,North,0,0.0,0.0,60,0.00,,SKC,0.00,VWS V13.00,2013-02-18 05:00:00,
2013-02-17 22:05:00,18.5,6.9,29.79,North,0,0.0,0.0,60,0.00,,SKC,0.00,VWS V13.00,2013-02-18 05:05:00,
2013-02-17 22:10:00,19.0,7.4,29.79,North,0,0.0,0.0,60,0.00,,SKC,0.00,VWS V13.00,2013-02-18 05:10:00,
2013-02-17 22:15:00,18.9,7.3,29.79,North,0,0.0,0.0,60,0.00,,SKC,0.00,VWS V13.00,2013-02-18 05:15:00,
2013-02-17 22:20:00,18.7,6.7,29.79,North,0,0.0,0.0,59,0.00,,SKC,0.00,VWS V13.00,2013-02-18 05:20:00,
2013-02-17 22:25:00,18.3,6.4,29.79,North,0,0.0,0.0,59,0.00,,SKC,0.00,VWS V13.00,2013-02-18 05:25:00,
2013-02-17 22:30:00,18.0,5.7,29.79,North,0,0.0,0.0,58,0.00,,SKC,0.00,VWS V13.00,2013-02-18 05:30:00,
2013-02-17 22:35:00,17.8,5.5,29.79,North,0,0.0,0.0,58,0.00,,SKC,0.00,VWS V13.00,2013-02-18 05:35:00,
2013-02-17 22:40:00,17.6,5.7,29.79,North,0,0.0,0.0,59,0.00,,SKC,0.00,VWS V13.00,2013-02-18 05:40:00,
2013-02-17 22:45:00,17.6,5.7,29.79,North,0,0.0,0.0,59,0.00,,SKC,0.00,VWS V13.00,2013-02-18 05:45:00,
2013-02-17 22:50:00,17.6,5.7,29.79,North,0,0.0,0.0,59,0.00,,SKC,0.00,VWS V13.00,2013-02-18 05:50:00,
2013-02-17 22:55:00,17.6,5.7,29.79,North,0,0.0,0.0,59,0.00,,SKC,0.00,VWS V13.00,2013-02-18 05:55:00,
2013-02-17 23:00:00,17.8,5.9,29.79,North,0,0.0,0.0,59,0.00,,SKC,0.00,VWS V13.00,2013-02-18 06:00:00,
2013-02-17 23:05:00,18.0,6.1,29.79,North,0,0.0,0.0,59,0.00,,SKC,0.00,VWS V13.00,2013-02-18 06:05:00,
2013-02-17 23:11:00,18.0,6.1,29.79,North,0,0.0,0.0,59,0.00,,SKC,0.00,VWS V13.00,2013-02-18 06:11:00,
2013-02-17 23:16:00,18.0,6.1,29.79,North,0,0.0,0.0,59,0.00,,SKC,0.00,VWS V13.00,2013-02-18 06:16:00,
2013-02-17 23:21:00,17.6,5.7,29.79,North,0,0.0,0.0,59,0.00,,SKC,0.00,VWS V13.00,2013-02-18 06:21:00,
2013-02-17 23:26:00,17.4,5.6,29.79,North,0,0.0,0.0,59,0.00,,SKC,0.00,VWS V13.00,2013-02-18 06:26:00,
2013-02-17 23:31:00,17.2,5.4,29.79,North,0,0.0,0.0,59,0.00,,SKC,0.00,VWS V13.00,2013-02-18 06:31:00,
2013-02-17 23:36:00,16.9,5.0,29.79,North,0,0.0,0.0,59,0.00,,SKC,0.00,VWS V13.00,2013-02-18 06:36:00,
2013-02-17 23:41:00,16.7,4.9,29.79,North,0,0.0,0.0,59,0.00,,SKC,0.00,VWS V13.00,2013-02-18 06:41:00,
2013-02-17 23:46:00,16.5,5.1,29.82,North,0,0.0,0.0,60,0.00,,SKC,0.00,VWS V13.00,2013-02-18 06:46:00,
2013-02-17 23:51:00,16.2,4.7,29.82,North,0,0.0,0.0,60,0.00,,SKC,0.00,VWS V13.00,2013-02-18 06:51:00,
2013-02-17 23:56:00,16.2,5.1,29.82,North,0,0.0,0.0,61,0.00,,SKC,0.00,VWS V13.00,2013-02-18 06:56:00,